Hurricane Symbol View the latest observations near East Pacific Tropical Storm Bud.

Station KPTV2 - 8632200 - Kiptopeke, VA Image indicating link to RSS feed of recent meteorological observations for station KPTV2


Conditions at KPTV2 as of
(9:00 am EDT)
1300 GMT on 07/25/2024:
     

Click on the graph icon in the table below to see a time series plot of the last five days of that observation.

5-day plot - Wind Direction Wind Direction (WDIR): W ( 260 deg true )
5-day plot - Wind Speed Wind Speed (WSPD): 8.9 kts
5-day plot - Wind Gust Wind Gust (GST): 12.0 kts
5-day plot - Atmospheric Pressure Atmospheric Pressure (PRES):30.18 in
5-day plot - Pressure Tendency Pressure Tendency (PTDY):+0.02 in ( Rising )
5-day plot - Air Temperature Air Temperature (ATMP): 76.6 °F
5-day plot - Water Temperature Water Temperature (WTMP): 77.4 °F
5-day plot - Wind Speed at 10 Meters Wind Speed at 10 meters (WSPD10M): 9.7 kts
5-day plot - Wind Speed at 20 Meters Wind Speed at 20 meters (WSPD20M): 11.7 kts
5-day plot -  Wind Speed, Wind Gust and Atmospheric Pressure Combined plot of Wind Speed, Gust, and Air Pressure
NOS Water Level Observation Network Water Level
Previous observations
TIME
(EDT)
5-day plot - Wind Direction
WDIR
 
5-day plot - Wind Speed
WSPD
kts
5-day plot - Wind Gust
GST
kts
5-day plot - Wave Height
WVHT
ft
5-day plot - Dominant Wave Period
DPD
sec
5-day plot - Average Wave Period
APD
sec
5-day plot - Mean Wave Direction
MWD
 
5-day plot - Atmospheric Pressure
PRES
in
5-day plot - Pressure Tendency
PTDY
in
5-day plot - Air Temperature
ATMP
°F
5-day plot - Water Temperature
WTMP
°F
5-day plot - Dew Point
DEWP
°F
5-day plot - Salinity
SAL
psu
5-day plot - Visibility
VIS
nmi
5-day plot - Tide (above MLLW)
TIDE
ft
2024-07-25 08:54 am W 9.9 12.0----30.18- 76.6 77.4----
2024-07-25 08:48 am W 11.1 12.0----30.18- 76.5 77.4----
2024-07-25 08:42 am W 9.9 12.0----30.18- 76.3 77.2----
2024-07-25 08:36 am W 9.9 11.1----30.18- 76.3 77.2----
2024-07-25 08:30 am W 8.9 11.1----30.18- 76.1 77.2----
2024-07-25 08:24 am W 8.9 11.1----30.17- 75.9 77.2----
2024-07-25 08:18 amWSW 9.9 12.0----30.17- 75.7 77.2----
2024-07-25 08:12 amWSW 9.9 12.0----30.17- 75.9 77.2----
2024-07-25 08:06 amWSW 8.9 11.1----30.17- 75.9 77.2----
2024-07-25 08:00 amWSW 8.9 13.0----30.17+0.00 75.9 77.2----
2024-07-25 07:54 amWSW 11.1 13.0----30.17- 76.1 77.2----
2024-07-25 07:48 amWSW 11.1 12.0----30.16-- 77.4----
2024-07-25 07:42 amWSW 8.0 11.1----30.16-- 77.4----
2024-07-25 07:36 amWSW 8.9 12.0----30.16-- 77.2----
2024-07-25 07:30 am W 8.0 12.0----30.16- 75.7 77.2----
2024-07-25 07:24 amWSW 9.9 13.0----30.16- 75.7 77.2----
2024-07-25 07:18 amWSW 11.1 13.0----30.16- 75.6 77.2----
2024-07-25 07:12 amWSW 9.9 12.0----30.16- 75.7 77.0----
2024-07-25 07:06 am W 11.1 12.0----30.16- 75.7 76.8----
2024-07-25 07:00 am W 11.1 12.0----30.16+0.00 75.6 76.8----
2024-07-25 06:54 am W 8.9 12.0----30.16- 75.6 76.8----
2024-07-25 06:48 amWNW 11.1 12.0----30.15- 75.7 76.8----
2024-07-25 06:42 amWNW 11.1 13.0----30.15- 75.7 76.8----
2024-07-25 06:36 amWNW 11.1 13.0----30.15- 75.9 76.8----
2024-07-25 06:30 amWNW 11.1 14.0----30.15- 75.9 76.8----
2024-07-25 06:24 amWNW 9.9 12.0----30.16- 75.7 76.6----
2024-07-25 06:18 amWNW 11.1 14.0----30.16- 75.6 76.6----
2024-07-25 06:12 amWNW 11.1 15.0----30.16- 75.2 76.6----
2024-07-25 06:06 amWNW 12.0 17.1----30.16- 74.8 76.6----
2024-07-25 06:00 amWNW 15.0 18.1----30.16+0.00 75.0 76.5----
2024-07-25 05:54 amWNW 13.0 18.1----30.16- 75.4 76.5----
2024-07-25 05:48 amWNW 14.0 15.9----30.16-- 76.5----
2024-07-25 05:42 amWNW 12.0 15.0----30.16-- 76.3----
2024-07-25 05:36 amWNW 15.0 18.1----30.17-- 76.3----
2024-07-25 05:30 amWNW 15.0 17.1----30.16- 75.4 76.1----
2024-07-25 05:24 amWNW 12.0 15.9----30.17- 75.4 75.9----
2024-07-25 05:18 am W 13.0 15.9----30.17- 75.6 75.7----
2024-07-25 05:12 amWNW 14.0 17.1----30.17- 75.6 75.7----
2024-07-25 05:06 am W 13.0 15.9----30.17- 75.7 75.9----
2024-07-25 05:00 am W 12.0 15.0----30.17+0.01 75.7 75.7----
2024-07-25 04:54 am W 13.0 17.1----30.17- 75.7 75.7----
2024-07-25 04:48 am W 12.0 14.0----30.17-- 75.7----
2024-07-25 04:42 am W 13.0 15.9----30.17-- 75.7----
2024-07-25 04:36 am W 14.0 18.1----30.17-- 75.7----
2024-07-25 04:30 am W 13.0 17.1----30.17- 76.1 75.7----
2024-07-25 04:24 am W 14.0 17.1----30.17- 76.5 75.7----
2024-07-25 04:18 am W 15.0 17.1----30.16- 76.6 75.7----
2024-07-25 04:12 am W 13.0 17.1----30.16- 76.8 75.7----
2024-07-25 04:06 am W 12.0 15.9----30.16- 76.8 75.7----
2024-07-25 04:00 am W 12.0 15.9----30.16+0.00 76.8 75.7----
2024-07-25 03:54 amWNW 11.1 14.0----30.15- 76.8 75.7----
2024-07-25 03:48 amWNW 12.0 15.0----30.15-- 75.7----
2024-07-25 03:42 am W 12.0 14.0----30.15-- 75.7----
2024-07-25 03:36 am W 12.0 15.9----30.15-- 75.7----
2024-07-25 03:30 am W 12.0 15.9----30.16- 77.0 75.7----
2024-07-25 03:24 am W 14.0 18.1----30.16- 77.2 75.7----
2024-07-25 03:18 am W 15.0 17.1----30.16- 77.4 75.7----
2024-07-25 03:12 am W 11.1 13.0----30.16- 77.0 75.7----
2024-07-25 03:06 am W 12.0 15.9----30.16- 77.0 75.7----
2024-07-25 03:00 am W 15.0 15.9----30.16+0.00 77.2 75.7----
2024-07-25 02:54 am W 11.1 14.0----30.16- 77.2 75.9----
2024-07-25 02:48 am W 11.1 13.0----30.16- 77.2 75.7----
2024-07-25 02:42 am W 11.1 14.0----30.17- 77.2 75.9----
2024-07-25 02:36 am W 11.1 13.0----30.17- 77.4 75.7----
2024-07-25 02:30 am W 8.9 12.0----30.17- 77.2 75.7----
2024-07-25 02:24 amWSW 9.9 12.0----30.16- 77.2 75.9----
2024-07-25 02:18 amWSW 11.1 13.0----30.16- 77.4 75.9----
2024-07-25 02:12 amWSW 9.9 13.0----30.16- 77.5 75.9----
2024-07-25 02:06 amWSW 9.9 12.0----30.16- 77.9 76.1----
2024-07-25 02:00 amWSW 8.9 12.0----30.16+0.00 77.9 76.1----
2024-07-25 01:54 amWSW 12.0 14.0----30.16- 78.1 76.3----
2024-07-25 01:48 amWSW 9.9 12.0----30.16- 78.1 76.3----
2024-07-25 01:42 amWSW 8.9 9.9----30.16- 77.7 76.3----
2024-07-25 01:36 amWSW 8.0 9.9----30.16- 77.7 76.3----
2024-07-25 01:30 amWSW 8.0 8.9----30.16- 77.7 76.6----
2024-07-25 01:24 amWSW 8.9 9.9----30.16- 78.1 76.8----
2024-07-25 01:18 amWSW 8.0 11.1----30.16- 78.1 77.7----
2024-07-25 01:12 amWSW 8.9 11.1----30.16- 78.6 78.3----
2024-07-25 01:06 am W 8.9 11.1----30.16- 78.6 78.3----
2024-07-25 01:00 amWSW 9.9 12.0----30.16+0.00 78.4 78.3----
2024-07-25 12:54 amWSW 8.0 9.9----30.16- 78.1 78.3----
2024-07-25 12:48 am SW 8.9 11.1----30.16- 78.3 78.3----
2024-07-25 12:42 am SW 9.9 11.1----30.16- 78.6 78.3----
2024-07-25 12:36 amWSW 11.1 12.0----30.16- 78.8 78.3----
2024-07-25 12:30 am SW 9.9 12.0----30.16- 78.6 78.3----
2024-07-25 12:24 am SW 9.9 12.0----30.16- 79.0 78.3----
2024-07-25 12:18 am SW 9.9 12.0----30.16- 79.2 78.3----
2024-07-25 12:12 am SW 11.1 13.0----30.16- 79.3 78.3----
2024-07-25 12:06 am SW 8.9 11.1----30.16- 79.2 78.3----
2024-07-25 12:00 am SW 8.0 9.9----30.16+0.01 79.3 78.3----
2024-07-24 11:54 pm SW 8.0 9.9----30.16- 79.5 78.3----
2024-07-24 11:48 pm SW 7.0 8.9----30.16-- 78.3----
2024-07-24 11:42 pmSSW 7.0 8.9----30.16-- 78.3----
2024-07-24 11:36 pmSSW 8.0 8.9----30.16-- 78.3----
2024-07-24 11:30 pm SW 7.0 8.0----30.16- 80.1 78.3----
2024-07-24 11:24 pm SW 7.0 8.0----30.16- 80.4 78.4----
2024-07-24 11:18 pmSSW 5.1 6.0----30.16- 79.7 78.4----
2024-07-24 11:12 pm SW 5.1 6.0----30.16- 79.9 78.4----
2024-07-24 11:06 pmSSW 5.1 6.0----30.16- 79.2 78.4----
2024-07-24 11:00 pmSSW 4.1 5.1----30.16+0.01 79.2 78.4----
2024-07-24 10:54 pmSSW 4.1 4.1----30.16- 79.2 78.4----
2024-07-24 10:48 pmSSW 2.9 4.1----30.16-- 78.4----
2024-07-24 10:42 pm SW 4.1 5.1----30.17-- 78.4----
2024-07-24 10:36 pmWSW 4.1 5.1----30.17-- 78.4----
2024-07-24 10:30 pm W 4.1 5.1----30.17- 80.2 78.4----
2024-07-24 10:24 pm W 5.1 6.0----30.17- 80.4 78.4----
2024-07-24 10:18 pm W 5.1 7.0----30.17- 80.4 78.6----
2024-07-24 10:12 pm W 5.1 6.0----30.17- 80.6 78.6----
2024-07-24 10:06 pmWSW 6.0 6.0----30.17- 80.4 78.6----
2024-07-24 10:00 pmWSW 5.1 6.0----30.17+0.04 80.6 78.6----
2024-07-24 09:54 pm SW 5.1 6.0----30.16- 80.1 78.6----
2024-07-24 09:48 pm SW 5.1 6.0----30.16- 80.2 78.6----
2024-07-24 09:42 pmWSW 4.1 5.1----30.16- 80.4 78.6----
2024-07-24 09:36 pmWSW 4.1 5.1----30.16- 80.6 78.6----
2024-07-24 09:30 pm W 4.1 6.0----30.16- 81.0 78.4----
2024-07-24 09:24 pm W 6.0 8.0----30.16- 81.3 78.4----
2024-07-24 09:18 pmWSW 7.0 8.0----30.16- 81.1 78.4----
2024-07-24 09:12 pm W 6.0 8.0----30.16- 81.1 78.3----
2024-07-24 09:06 pm W 6.0 8.0----30.15- 81.1 78.3----
2024-07-24 09:00 pm W 5.1 8.0----30.15+0.04 81.1 78.6----
2024-07-24 08:54 pm W 6.0 7.0----30.15- 81.3 78.8----
2024-07-24 08:48 pm W 6.0 7.0----30.15- 81.1 78.8----
2024-07-24 08:42 pm W 6.0 7.0----30.14- 81.3 79.0----
2024-07-24 08:36 pm W 6.0 8.0----30.15- 81.5 79.0----
2024-07-24 08:30 pm W 7.0 8.9----30.15- 81.7 79.0----
2024-07-24 08:24 pm W 7.0 8.9----30.15- 81.9 78.8----
2024-07-24 08:18 pm W 8.0 9.9----30.14- 81.9 78.6----
2024-07-24 08:12 pm W 7.0 9.9----30.15- 81.9 78.3----
2024-07-24 08:06 pm W 8.0 9.9----30.14- 82.4 78.4----
2024-07-24 08:00 pmWSW 8.9 9.9----30.14+0.02 82.0 78.3----
2024-07-24 07:54 pm W 7.0 8.9----30.14- 82.0 78.3----
2024-07-24 07:48 pm W 8.0 9.9----30.14- 81.9 78.4----
2024-07-24 07:42 pm W 8.0 11.1----30.14- 82.2 78.4----
2024-07-24 07:36 pm W 8.9 12.0----30.14- 82.2 78.1----
2024-07-24 07:30 pmWSW 8.9 12.0----30.14- 82.0 78.3----
2024-07-24 07:24 pmWSW 9.9 11.1----30.14- 82.0 78.3----
2024-07-24 07:18 pmWSW 8.0 11.1----30.14- 82.0 78.6----
2024-07-24 07:00 pm SW 8.9 11.1----30.13+0.00 82.4 79.0----
2024-07-24 06:54 pm SW 6.0 8.0----30.13- 82.2 79.0----
2024-07-24 06:48 pmWSW 6.0 8.9----30.13-- 79.0----
2024-07-24 06:42 pmWSW 7.0 9.9----30.13-- 79.0----
2024-07-24 06:36 pmWSW 9.9 12.0----30.13-- 79.0----
2024-07-24 06:30 pmWSW 8.9 11.1----30.13- 82.9 79.0----
2024-07-24 06:24 pmWSW 8.0 8.9----30.12- 82.6 79.0----
2024-07-24 06:18 pmWSW 8.9 12.0----30.12- 82.6 78.8----
2024-07-24 06:12 pmWSW 11.1 13.0----30.12- 82.9 78.8----
2024-07-24 06:06 pmWSW 11.1 13.0----30.12- 82.8 78.8----
2024-07-24 06:00 pmWSW 12.0 14.0----30.12-0.03 82.6 78.8----
2024-07-24 05:54 pm SW 9.9 14.0----30.12- 82.4 78.8----
2024-07-24 05:48 pmWSW 12.0 13.0----30.12- 82.6 78.6----
2024-07-24 05:42 pmWSW 11.1 13.0----30.12- 82.6 78.4----
2024-07-24 05:36 pmWSW 9.9 12.0----30.12- 82.6 78.6----
2024-07-24 05:30 pmWSW 8.9 11.1----30.13- 82.4 78.6----
2024-07-24 05:24 pmWSW 7.0 8.9----30.13- 82.6 78.3----
2024-07-24 05:18 pm SW 6.0 7.0----30.13- 81.7 77.7----
2024-07-24 05:12 pmSSW 5.1 7.0----30.13- 81.3 77.0----
2024-07-24 05:06 pmSSW 5.1 7.0----30.12- 81.0 76.5----
2024-07-24 05:00 pmSSW 6.0 7.0----30.12-0.05 80.2 76.3----
2024-07-24 04:54 pmSSW 6.0 7.0----30.12- 80.4 76.6----
2024-07-24 04:48 pmSSW 6.0 7.0----30.12-- 76.1----
2024-07-24 04:42 pmWSW 6.0 8.0----30.13-- 76.1----
2024-07-24 04:36 pmWSW 7.0 8.0----30.13-- 75.9----
2024-07-24 04:30 pmWSW 7.0 8.0----30.13- 81.7 75.9----
2024-07-24 04:24 pmWSW 7.0 8.0----30.13- 81.7 75.4----
2024-07-24 04:18 pmWSW 7.0 8.0----30.13- 81.7 75.4----
2024-07-24 04:12 pmWSW 6.0 7.0----30.13- 81.5 74.7----
2024-07-24 04:06 pmWSW 6.0 8.0----30.13- 81.1 74.7----
2024-07-24 04:00 pmWSW 6.0 8.9----30.13-0.05 81.1 74.7----
2024-07-24 03:54 pmWSW 7.0 8.9----30.13- 81.1 74.7----
2024-07-24 03:48 pmWSW 6.0 8.0----30.14- 80.8 74.7----
2024-07-24 03:42 pmWSW 5.1 7.0----30.14- 80.8 74.7----
2024-07-24 03:36 pmWSW 5.1 7.0----30.14- 80.8 74.8----
2024-07-24 03:30 pmWSW 6.0 8.9----30.14- 81.0 74.8----
2024-07-24 03:24 pmWSW 7.0 8.0----30.14- 80.6 74.8----
2024-07-24 03:18 pmWSW 7.0 8.0----30.14- 80.2 74.8----
2024-07-24 03:12 pmWSW 5.1 6.0----30.14- 79.9 74.8----
2024-07-24 03:06 pmWSW 4.1 7.0----30.14- 79.5 74.8----
2024-07-24 03:00 pmWSW 6.0 7.0----30.15-0.04 79.7 74.8----
2024-07-24 02:54 pmWSW 5.1 6.0----30.15- 79.7 74.8----
2024-07-24 02:48 pm SW 2.9 4.1----30.15- 80.2 74.8----
2024-07-24 02:42 pm SW 2.9 4.1----30.16- 79.9 74.8----
2024-07-24 02:36 pmSSW 2.9 4.1----30.16- 79.2 75.0----
2024-07-24 02:30 pm S 4.1 4.1----30.16- 79.0 75.0----
2024-07-24 02:24 pmSSW 4.1 5.1----30.16- 79.2 75.0----
2024-07-24 02:18 pm SW 2.9 4.1----30.16- 79.7 75.0----
2024-07-24 02:12 pmSSW 2.9 4.1----30.16- 79.3 74.8----
2024-07-24 02:06 pm SW 4.1 5.1----30.17- 79.0 74.8----
2024-07-24 02:00 pmSSW 2.9 5.1----30.17-0.02 79.5 75.0----
2024-07-24 01:54 pmSSW 1.9 2.9----30.17- 80.1 75.0----
2024-07-24 01:48 pm S 1.9 2.9----30.17- 78.8 75.0----
2024-07-24 01:42 pm SW 1.9 1.9----30.17- 79.2 75.4----
2024-07-24 01:36 pm SW 1.9 2.9----30.17- 78.8 75.6----
2024-07-24 01:30 pm SW 2.9 4.1----30.17- 78.6 75.7----
2024-07-24 01:24 pm SW 4.1 5.1----30.18- 78.8 75.6----
2024-07-24 01:18 pmWSW 4.1 6.0----30.18- 78.8 75.4----
2024-07-24 01:12 pmWSW 5.1 7.0----30.18- 78.3 75.4----
2024-07-24 01:06 pm W 5.1 7.0----30.18- 78.4 75.6----
2024-07-24 01:00 pm W 5.1 6.0----30.18+0.01 78.3 75.7----
2024-07-24 12:54 pm W 5.1 7.0----30.18- 78.4 75.9----
2024-07-24 12:48 pm W 6.0 7.0----30.18-- 75.7----
2024-07-24 12:42 pm W 6.0 8.0----30.18-- 75.7----
2024-07-24 12:36 pm W 7.0 8.0----30.18-- 75.7----
2024-07-24 12:30 pm W 6.0 7.0----30.18- 78.1 76.1----
2024-07-24 12:24 pm W 7.0 8.0----30.19- 77.7 77.2----
2024-07-24 12:18 pm W 6.0 8.9----30.19- 77.5 77.2----
2024-07-24 12:12 pmWSW 8.0 9.9----30.19- 77.4 77.2----
2024-07-24 12:06 pmWSW 8.9 11.1----30.19- 77.2 77.2----
2024-07-24 12:00 pmWSW 8.0 8.9----30.19+0.04 77.4 77.2----
2024-07-24 11:54 amWSW 8.9 9.9----30.19- 77.4 77.2----
2024-07-24 11:48 amWSW 8.0 8.9----30.19-- 77.2----
2024-07-24 11:42 amWSW 8.0 11.1----30.19-- 77.2----
2024-07-24 11:36 amWSW 9.9 12.0----30.19-- 77.0----
2024-07-24 11:30 amWSW 8.9 11.1----30.19- 77.0 77.0----
2024-07-24 11:24 amWSW 9.9 11.1----30.19- 77.2 77.0----
2024-07-24 11:18 amWSW 8.9 11.1----30.19- 77.0 77.0----
2024-07-24 11:12 amWSW 8.9 11.1----30.19- 77.2 76.8----
2024-07-24 11:06 amWSW 8.9 9.9----30.19- 77.2 76.8----
2024-07-24 11:00 amWSW 8.0 9.9----30.19+0.03 77.4 76.8----
2024-07-24 10:54 amWSW 8.0 9.9----30.18- 77.7 76.6----
2024-07-24 10:48 amWSW 6.0 8.0----30.18- 77.4 76.6----
2024-07-24 10:42 amWSW 7.0 9.9----30.18- 77.4 76.6----
2024-07-24 10:36 amWSW 8.0 9.9----30.18- 77.2 76.5----
2024-07-24 10:30 amWSW 8.0 9.9----30.17- 77.0 76.5----
2024-07-24 10:24 amWSW 9.9 11.1----30.17- 77.0 76.5----
2024-07-24 10:18 amWSW 8.9 11.1----30.17- 77.0 76.5----
2024-07-24 10:12 amWSW 9.9 11.1----30.17- 77.0 76.3----
2024-07-24 10:06 amWSW 9.9 12.0----30.16- 77.0 76.3----
2024-07-24 10:00 am W 9.9 11.1----30.16+0.00 77.0 76.3----
2024-07-24 09:54 amWSW 9.9 12.0----30.16- 77.0 76.3----
2024-07-24 09:48 am W 9.9 11.1----30.16-- 76.3----
2024-07-24 09:42 amWSW 9.9 12.0----30.16-- 76.3----
2024-07-24 09:36 amWSW 8.9 12.0----30.16-- 76.3----
2024-07-24 09:30 amWSW 9.9 12.0----30.16- 76.8 76.3----
2024-07-24 09:24 amWSW 8.9 11.1----30.15- 76.8 76.3----
2024-07-24 09:18 am W 9.9 12.0----30.15- 76.8 76.3----
2024-07-24 09:12 am W 9.9 12.0----30.15- 76.8 76.3----
2024-07-24 09:06 am W 8.9 11.1----30.15- 77.0 76.3----
2024-07-24 09:00 am W 8.0 8.9----30.15+0.01 77.2 76.3----
2024-07-24 08:54 am W 6.0 8.0----30.15- 77.0 76.1----